Showing default

LEMUR 2 SIERRINI, 60579

Orbit data source: Space-Track

LEMUR 2 SIERRINI, 60579 is an American payload satellite in SSO that was launched on Fri, 16 Aug 2024 UTC via an FALCON 9 launch vehicle from the Air Force Western Test Range (AFWTR). Payload-class satellites include a variety of spacecraft equipped with specific instruments for various scientific and technological missions. These include communications satellites like Starlink; space stations such as the ISS; scientific satellites like the Hubble; Earth observation satellites from companies like Planet Labs, Umbra, and HawkEye 360; GPS; miniature CubeSats for education and research; and military/defense satellites.

Loading next visibility...
Identifier
60579, 2024-149DR
Orbit
SSO
Country
Flag of USUS
Related business
Manufacturer
Spire/Glasgow
Mission
Operational Commercial Com/MetRO
Bus & Motor
CUBESAT 3U, Unknown motor
Mass
7.6 kg wet, 7.6 kg dry
Launch date (UTC)
2024-08-16 (2 years ago)
Launch vehicle
FALCON 9
Launch site
Air Force Western Test Range (AFWTR)
Object type
Payload
Rocket body
Debris
Shape & HBR
Box + 2 Pan, 0.5 m
Radar Cross Section
0.063 m², Medium (>0.1 m² and < 1m²)

Expand to show TLE details & history
Last TLE update: 1 day ago

TLE from 1 day ago
0 LEMUR 2 SIERRINI
1 60579U 24149DR  26173.84698471  .00009397  00000-0  56536-3 0  9999
2 60579  97.6836 256.4642 0006131 149.7752 210.3833 15.11043806101318
Epoch: 2026-06-22T20:19Z
TLE epoch observation values (Epoch: 2026-06-22T20:19:39.478Z)
Latitude
0.00003°
Longitude
40.52267°
Altitude
539.742 km
Speed
7.591 km/s
True Right ascension
17h 05m 51s
True Declination
0° 00' 00"
Sunlit
Object was in full shadow at epoch
Visualization orbit readout
Latitude
Unknown
Longitude
Unknown
Altitude
Unknown
Speed
Unknown
Apparent Right ascension
Unknown
Apparent Declination
Unknown
Sunlit
N/A
Visualization observer readout
Local Sidereal Time
09:31:35
Azimuth
Unknown
Elevation
Unknown
Doppler factor
Unknown
Orbital elements
Apogee altitude
534.241 km
Perigee altitude
525.77 km
Semi-major axis
6,908.142 km
Eccentricity
0.00061
Inclination
97.6836°
RAAN
256.4642°
Arg. of periapsis
149.7752°
True anomaly
210.34779°
Mean anomaly
210.3833°
Eccentric anomaly
210.36554°
Mean motion
3.78008 °/min
Orbital period
95.24 mins
BSTAR
0.00056536
Loading maneuver chart data...
Computing Atmospheric mass density...
Loading historical data...
Loading historical data...
Loading historical data...
Loading historical data...
Loading historical data...
Loading historical data...
Loading historical data...

Documentation

Showing up to 5 results
|